H1 CPF 2 NER 2022 11 3 9 307 01 glonass140 H2 1903001 9140 44299 2022 11 3 0 0 0 2022 11 6 23 45 0 900 1 1 0 0 0 1 H9 10 0 59886 0.00000 0 -7359873.843 9209637.592 -22591479.038 10 0 59886 900.00000 0 -10039213.308 8615908.681 -21778769.781 10 0 59886 1800.00000 0 -12629816.606 8237552.624 -20541813.164 10 0 59886 2700.00000 0 -15064658.456 8064246.314 -18904689.503 10 0 59886 3600.00000 0 -17281213.904 8074043.145 -16899295.568 10 0 59886 4500.00000 0 -19223873.379 8234456.895 -14564718.741 10 0 59886 5400.00000 0 -20846078.444 8504005.830 -11946468.434 10 0 59886 6300.00000 0 -22112088.805 8834150.574 -9095580.105 10 0 59886 7200.00000 0 -22998306.723 9171542.384 -6067610.149 10 0 59886 8100.00000 0 -23494103.870 9460485.201 -2921542.169 10 0 59886 9000.00000 0 -23602116.916 9645505.705 281372.993 10 0 59886 9900.00000 0 -23338000.759 9673921.241 3478819.577 10 0 59886 10800.00000 0 -22729651.481 9498295.698 6608637.078 10 0 59886 11700.00000 0 -21815933.546 9078678.588 9610033.579 10 0 59886 12600.00000 0 -20644966.646 8384532.158 12424767.901 10 0 59886 13500.00000 0 -19272045.936 7396264.942 14998277.353 10 0 59886 14400.00000 0 -17757284.379 6106307.172 17280729.368 10 0 59886 15300.00000 0 -16163077.074 4519682.999 19227977.172 10 0 59886 16200.00000 0 -14551494.216 2654055.760 20802402.001 10 0 59886 17100.00000 0 -12981711.582 539244.450 21973626.891 10 0 59886 18000.00000 0 -11507585.225 -1783768.400 22719089.672 10 0 59886 18900.00000 0 -10175470.467 -4264296.517 23024465.615 10 0 59886 19800.00000 0 -9022374.609 -6843817.392 22883932.932 10 0 59886 20700.00000 0 -8074518.805 -9458170.896 22300277.099 10 0 59886 21600.00000 0 -7346367.357 -12039999.241 21284832.684 10 0 59886 22500.00000 0 -6840163.463 -14521328.662 19857264.096 10 0 59886 23400.00000 0 -6545989.673 -16836187.432 18045189.291 10 0 59886 24300.00000 0 -6442349.714 -18923153.252 15883653.134 10 0 59886 25200.00000 0 -6497247.022 -20727725.801 13414459.603 10 0 59886 26100.00000 0 -6669714.761 -22204426.890 10685374.617 10 0 59886 27000.00000 0 -6911733.499 -23318541.857 7749213.707 10 0 59886 27900.00000 0 -7170456.343 -24047429.912 4662830.814 10 0 59886 28800.00000 0 -7390648.299 -24381348.637 1486026.826 10 0 59886 29700.00000 0 -7517237.417 -24323758.032 -1719601.861 10 0 59886 30600.00000 0 -7497870.061 -23891090.642 -4891853.091 10 0 59886 31500.00000 0 -7285362.124 -23111996.688 -7969124.034 10 0 59886 32400.00000 0 -6839941.904 -22026095.069 -10891608.281 10 0 59886 33300.00000 0 -6131188.649 -20682281.810 -13602461.436 10 0 59886 34200.00000 0 -5139583.326 -19136666.417 -16048912.022 10 0 59886 35100.00000 0 -3857604.222 -17450222.342 -18183295.592 10 0 59886 36000.00000 0 -2290318.957 -15686250.012 -19963991.278 10 0 59886 36900.00000 0 -455445.707 -13907758.955 -21356241.840 10 0 59886 37800.00000 0 1617121.258 -12174879.106 -22332840.643 10 0 59886 38700.00000 0 3886304.000 -10542410.188 -22874671.548 10 0 59886 39600.00000 0 6301311.546 -9057612.439 -22971090.539 10 0 59886 40500.00000 0 8803528.687 -7758331.693 -22620141.141 10 0 59886 41400.00000 0 11328745.106 -6671537.717 -21828598.825 10 0 59886 42300.00000 0 13809632.207 -5812337.299 -20611843.099 10 0 59886 43200.00000 0 16178364.476 -5183503.317 -18993559.367 10 0 59886 44100.00000 0 18369275.712 -4775539.113 -17005276.115 10 0 59886 45000.00000 0 20321438.703 -4567274.700 -14685746.403 10 0 59886 45900.00000 0 21981060.060 -4526968.519 -12080185.909 10 0 59886 46800.00000 0 23303589.546 -4613866.881 -9239382.767 10 0 59886 47700.00000 0 24255455.339 -4780153.613 -6218697.330 10 0 59886 48600.00000 0 24815352.542 -4973205.724 -3076972.271 10 0 59886 49500.00000 0 24975031.418 -5138057.892 124624.674 10 0 59886 50400.00000 0 24739553.103 -5219969.808 3323801.496 10 0 59886 51300.00000 0 24127003.358 -5166986.237 6458361.769 10 0 59886 52200.00000 0 23167677.935 -4932380.312 9467418.868 10 0 59886 53100.00000 0 21902775.458 -4476875.954 12292580.174 10 0 59886 54000.00000 0 20382654.375 -3770555.094 14879078.008 10 0 59886 54900.00000 0 18664728.498 -2794369.108 17176825.482 10 0 59886 55800.00000 0 16811090.437 -1541190.993 19141377.301 10 0 59886 56700.00000 0 14885962.930 -16364.235 20734777.925 10 0 59886 57600.00000 0 12953084.604 1762274.425 21926281.970 10 0 59886 58500.00000 0 11073138.755 3764899.215 22692934.340 10 0 59886 59400.00000 0 9301331.281 5950705.722 23020000.423 10 0 59886 60300.00000 0 7685217.141 8269385.900 22901239.395 10 0 59886 61200.00000 0 6262864.164 10663007.166 22339016.465 10 0 59886 62100.00000 0 5061428.771 13068218.723 21344252.655 10 0 59886 63000.00000 0 4096201.158 15418694.967 19936213.329 10 0 59886 63900.00000 0 3370158.245 17647716.059 18142139.461 10 0 59886 64800.00000 0 2874041.821 19690780.141 15996728.124 10 0 59886 65700.00000 0 2586957.793 21488140.121 13541471.326 10 0 59886 66600.00000 0 2477471.133 22987160.644 10823864.843 10 0 59886 67500.00000 0 2505150.505 24144398.061 7896501.069 10 0 59886 68400.00000 0 2622497.934 24927317.036 4816062.198 10 0 59886 69300.00000 0 2777182.683 25315572.134 1642232.204 10 0 59886 70200.00000 0 2914485.447 25301800.283 -1563452.236 10 0 59886 71100.00000 0 2979849.872 24891890.290 -4738790.163 10 0 59886 72000.00000 0 2921433.623 24104717.295 -7822121.227 10 0 59886 72900.00000 0 2692550.606 22971352.072 -10753523.711 10 0 59886 73800.00000 0 2253900.269 21533777.323 -13475982.202 10 0 59886 74700.00000 0 1575488.482 19843163.884 -15936501.675 10 0 59886 75600.00000 0 638157.135 17957778.340 -18087145.828 10 0 59886 76500.00000 0 -565344.029 15940609.281 -19885978.835 10 0 59886 77400.00000 0 -2029790.710 13856811.422 -21297891.477 10 0 59886 78300.00000 0 -3737448.568 11771074.615 -22295294.942 10 0 59886 79200.00000 0 -5658572.663 9745028.053 -22858668.148 10 0 59886 80100.00000 0 -7752422.791 7834788.621 -22976947.295 10 0 59886 81000.00000 0 -9968753.839 6088756.298 -22647749.493 10 0 59886 81900.00000 0 -12249720.065 4545749.067 -21877425.563 10 0 59886 82800.00000 0 -14532114.337 3233555.593 -20680940.504 10 0 59886 83700.00000 0 -16749849.108 2167966.094 -19081583.564 10 0 59886 84600.00000 0 -18836575.298 1352321.573 -17110513.311 10 0 59886 85500.00000 0 -20728329.104 777599.605 -14806146.497 10 0 59887 0.00000 0 -22366095.273 423031.855 -12213403.062 10 0 59887 900.00000 0 -23698179.673 257225.736 -9382820.905 10 0 59887 1800.00000 0 -24682288.992 239741.576 -6369562.004 10 0 59887 2700.00000 0 -25287232.950 323056.157 -3232325.476 10 0 59887 3600.00000 0 -25494175.342 454828.139 -32193.295 10 0 59887 4500.00000 0 -25297382.681 580367.451 3168568.964 10 0 59887 5400.00000 0 -24704439.683 645202.433 6307731.628 10 0 59887 6300.00000 0 -23735923.668 597634.673 9324316.017 10 0 59887 7200.00000 0 -22424552.967 391172.461 12159780.675 10 0 59887 8100.00000 0 -20813846.522 -13260.674 14759155.420 10 0 59887 9000.00000 0 -18956352.225 -645435.803 17072101.335 10 0 59887 9900.00000 0 -16911519.306 -1524326.440 19053876.621 10 0 59887 10800.00000 0 -14743304.407 -2657076.887 20666190.625 10 0 59887 11700.00000 0 -12517611.430 -4038474.139 21877930.786 10 0 59887 12600.00000 0 -10299671.579 -5650945.190 22665749.869 10 0 59887 13500.00000 0 -8151471.728 -7465079.849 23014503.695 10 0 59887 14400.00000 0 -6129336.704 -9440657.546 22917532.259 10 0 59887 15300.00000 0 -4281764.313 -11528135.899 22376779.942 10 0 59887 16200.00000 0 -2647601.191 -13670540.075 21402753.260 10 0 59887 17100.00000 0 -1254633.340 -15805675.630 20014317.253 10 0 59887 18000.00000 0 -118648.288 -17868574.204 18238334.310 10 0 59887 18900.00000 0 756993.596 -19794071.912 16109151.867 10 0 59887 19800.00000 0 1381261.955 -21519414.564 13667947.882 10 0 59887 20700.00000 0 1774838.188 -22986782.461 10961945.699 10 0 59887 21600.00000 0 1969002.427 -24145630.470 8043512.176 10 0 59887 22500.00000 0 2004072.449 -24954746.138 4969155.276 10 0 59887 23400.00000 0 1927459.977 -25383939.890 1798439.498 10 0 59887 24300.00000 0 1791426.019 -25415296.127 -1407160.767 10 0 59887 25200.00000 0 1650629.698 -25043932.114 -4585448.297 10 0 59887 26100.00000 0 1559574.032 -24278231.740 -7674707.737 10 0 59887 27000.00000 0 1570056.879 -23139543.068 -10614904.545 10 0 59887 27900.00000 0 1728735.369 -21661351.031 -13348854.697 10 0 59887 28800.00000 0 2074907.805 -19887958.593 -15823341.914 10 0 59887 29700.00000 0 2638608.093 -17872730.618 -17990160.166 10 0 59887 30600.00000 0 3439094.881 -15675973.048 -19807060.556 10 0 59887 31500.00000 0 4483801.021 -13362535.643 -21238583.446 10 0 59887 32400.00000 0 5767789.679 -10999238.165 -22256759.020 10 0 59887 33300.00000 0 7273742.106 -8652227.521 -22841662.013 10 0 59887 34200.00000 0 8972479.453 -6384376.430 -22981809.150 10 0 59887 35100.00000 0 10823998.496 -4252832.442 -22674391.022 10 0 59887 36000.00000 0 12778979.195 -2306819.882 -21925333.296 10 0 59887 36900.00000 0 14780701.825 -585786.722 -20749185.593 10 0 59887 37800.00000 0 16767293.877 882026.239 -19168839.813 10 0 59887 38700.00000 0 18674212.678 2080534.406 -17215083.079 10 0 59887 39600.00000 0 20436859.327 3006237.480 -14925993.990 10 0 59887 40500.00000 0 21993213.802 3668109.776 -12346194.083 10 0 59887 41400.00000 0 23286379.943 4086958.820 -9525969.464 10 0 59887 42300.00000 0 24266932.691 4294280.932 -6520280.491 10 0 59887 43200.00000 0 24894968.390 4330664.099 -3387679.693 10 0 59887 44100.00000 0 25141771.631 4243807.655 -189160.087 10 0 59887 45000.00000 0 24991028.531 4086244.571 3013042.419 10 0 59887 45900.00000 0 24439535.816 3912864.619 6156668.092 10 0 59887 46800.00000 0 23497376.644 3778344.886 9180649.206 10 0 59887 47700.00000 0 22187556.791 3734597.580 12026298.221 10 0 59887 48600.00000 0 20545117.653 3828343.894 14638444.888 10 0 59887 49500.00000 0 18615764.419 4098916.785 16966500.349 10 0 59887 50400.00000 0 16454067.871 4576385.373 18965428.026 10 0 59887 51300.00000 0 14121315.685 5280079.650 20596603.508 10 0 59887 52200.00000 0 11683103.106 6217577.098 21828548.043 10 0 59887 53100.00000 0 9206763.203 7384193.257 22637522.882 10 0 59887 54000.00000 0 6758742.784 8762997.283 23007974.505 10 0 59887 54900.00000 0 4402031.778 10325351.780 22932823.564 10 0 59887 55800.00000 0 2193751.208 12031954.626 22413593.029 10 0 59887 56700.00000 0 182997.970 13834339.990 21460373.909 10 0 59887 57600.00000 0 -1590966.110 15676776.979 20091629.498 10 0 59887 58500.00000 0 -3100107.588 17498488.044 18333841.815 10 0 59887 59400.00000 0 -4328540.879 19236096.077 16221006.527 10 0 59887 60300.00000 0 -5272937.037 20826199.682 13793985.159 10 0 59887 61200.00000 0 -5942405.772 22207970.397 11099726.055 10 0 59887 62100.00000 0 -6357856.272 23325664.384 8190367.815 10 0 59887 63000.00000 0 -6550863.963 24130944.366 5122241.367 10 0 59887 63900.00000 0 -6562090.674 24584914.566 1954788.899 10 0 59887 64800.00000 0 -6439324.593 24659783.152 -1250580.302 10 0 59887 65700.00000 0 -6235222.408 24340081.758 -4431675.545 10 0 59887 66600.00000 0 -6004848.742 23623389.781 -7526729.141 10 0 59887 67500.00000 0 -5803116.892 22520531.637 -10475596.220 10 0 59887 68400.00000 0 -5682239.377 21055237.077 -13220926.438 10 0 59887 69300.00000 0 -5689296.724 19263277.231 -15709284.292 10 0 59887 70200.00000 0 -5864028.256 17191111.113 -17892195.772 10 0 59887 71100.00000 0 -6236939.554 14894097.930 -19727100.366 10 0 59887 72000.00000 0 -6827808.041 12434349.033 -21178189.193 10 0 59887 72900.00000 0 -7644651.485 9878308.571 -22217112.316 10 0 59887 73800.00000 0 -8683204.731 7294163.436 -22823540.864 10 0 59887 74700.00000 0 -9926928.462 4749190.524 -22985572.343 10 0 59887 75600.00000 0 -11347551.240 2307151.983 -22699970.713 10 0 59887 76500.00000 0 -12906123.463 25847.198 -21972235.972 10 0 59887 77400.00000 0 -14554539.920 -2045076.160 -20816501.427 10 0 59887 78300.00000 0 -16237467.673 -3865960.682 -19255260.247 10 0 59887 79200.00000 0 -17894598.513 -5408550.785 -17318926.326 10 0 59887 80100.00000 0 -19463131.131 -6656918.696 -15045237.957 10 0 59887 81000.00000 0 -20880378.240 -7607867.001 -12478516.083 10 0 59887 81900.00000 0 -22086388.260 -8270792.146 -9668791.905 10 0 59887 82800.00000 0 -23026470.433 -8667016.208 -6670821.615 10 0 59887 83700.00000 0 -23653516.296 -8828617.059 -3543008.316 10 0 59887 84600.00000 0 -23930019.132 -8796808.382 -346253.198 10 0 59887 85500.00000 0 -23829706.001 -8619940.093 2857240.364 10 0 59888 0.00000 0 -23338713.668 -8351205.855 6005185.122 10 0 59888 900.00000 0 -22456258.955 -8046156.302 9036427.658 10 0 59888 1800.00000 0 -21194776.711 -7760125.041 11892136.725 10 0 59888 2700.00000 0 -19579519.586 -7545676.794 14516944.522 10 0 59888 3600.00000 0 -17647637.902 -7450186.435 16860014.516 10 0 59888 4500.00000 0 -15446778.854 -7513651.007 18876017.303 10 0 59888 5400.00000 0 -13033264.258 -7766826.689 20525996.276 10 0 59888 6300.00000 0 -10469923.135 -8229768.511 21778107.615 10 0 59888 7200.00000 0 -7823669.292 -8910833.491 22608221.698 10 0 59888 8100.00000 0 -5162923.966 -9806188.332 23000375.849 10 0 59888 9000.00000 0 -2554989.378 -10899841.894 22947071.089 10 0 59888 9900.00000 0 -63480.732 -12164200.859 22449408.287 10 0 59888 10800.00000 0 2254078.740 -13561125.662 21517061.886 10 0 59888 11700.00000 0 4348401.932 -15043443.179 20168092.056 10 0 59888 12600.00000 0 6180234.180 -16556853.974 18428598.775 10 0 59888 13500.00000 0 7721728.980 -18042155.657 16332224.020 10 0 59888 14400.00000 0 8957347.487 -19437690.834 13919510.723 10 0 59888 15300.00000 0 9884245.438 -20681918.497 11237129.810 10 0 59888 16200.00000 0 10512132.275 -21716002.508 8336989.032 10 0 59888 17100.00000 0 10862608.792 -22486309.454 5275239.528 10 0 59888 18000.00000 0 10968011.152 -22946711.378 2111198.299 10 0 59888 18900.00000 0 10869809.841 -23060596.788 -1093793.392 10 0 59888 19800.00000 0 10616630.716 -22802504.693 -4277554.255 10 0 59888 20700.00000 0 10261981.370 -22159312.003 -7378267.073 10 0 59888 21600.00000 0 9861778.698 -21130923.038 -10335679.325 10 0 59888 22500.00000 0 9471782.171 -19730430.305 -13092276.847 10 0 59888 23400.00000 0 9145041.655 -17983738.033 -15594407.205 10 0 59888 24300.00000 0 8929468.296 -15928662.433 -17793330.443 10 0 59888 25200.00000 0 8865632.065 -13613544.663 -19646176.150 10 0 59888 26100.00000 0 8984880.141 -11095433.145 -21116787.537 10 0 59888 27000.00000 0 9307856.972 -8437910.099 -22176435.461 10 0 59888 27900.00000 0 9843489.911 -5708652.157 -22804387.905 10 0 59888 28800.00000 0 10588484.685 -2976826.454 -22988323.149 10 0 59888 29700.00000 0 11527353.369 -310430.502 -22724578.064 10 0 59888 30600.00000 0 12632974.950 2226313.347 -22018226.111 10 0 59888 31500.00000 0 13867665.798 4575400.050 -20882983.045 10 0 59888 32400.00000 0 15184715.666 6687218.815 -19340941.733 10 0 59888 33300.00000 0 16530324.813 8522374.037 -17422140.975 10 0 59888 34200.00000 0 17845860.554 10053074.395 -15163976.627 10 0 59888 35100.00000 0 19070337.754 11264032.676 -12610466.642 10 0 59888 36000.00000 0 20143018.021 12152839.596 -9811384.686 10 0 59888 36900.00000 0 21006017.112 12729797.326 -6821279.946 10 0 59888 37800.00000 0 21606809.673 13017221.486 -3698403.109 10 0 59888 38700.00000 0 21900524.841 13048243.055 -503560.480 10 0 59888 39600.00000 0 21851935.207 12865162.887 2701080.149 10 0 59888 40500.00000 0 21437054.952 12517430.510 5853207.519 10 0 59888 41400.00000 0 20644279.749 12059334.613 8891584.117 10 0 59888 42300.00000 0 19475020.765 11547504.536 11757238.054 10 0 59888 43200.00000 0 17943806.613 11038329.612 14394606.144 10 0 59888 44100.00000 0 16077849.641 10585406.117 16752606.037 10 0 59888 45000.00000 0 13916095.456 10237119.797 18785617.031 10 0 59888 45900.00000 0 11507795.958 10034465.604 20454351.539 10 0 59888 46800.00000 0 8910665.675 10009195.804 21726601.573 10 0 59888 47700.00000 0 6188698.156 10182373.395 22577847.219 10 0 59888 48600.00000 0 3409732.626 10563390.605 22991716.883 10 0 59888 49500.00000 0 642870.892 11149492.759 22960291.847 10 0 59888 50400.00000 0 -2044149.702 11925826.809 22484250.367 10 0 59888 51300.00000 0 -4587520.167 12866012.237 21572849.407 10 0 59888 52200.00000 0 -6929756.329 13933210.578 20243744.673 10 0 59888 53100.00000 0 -9021830.344 15081649.373 18522652.369 10 0 59888 54000.00000 0 -10824950.815 16258537.684 16442858.682 10 0 59888 54900.00000 0 -12311919.148 17406294.120 14044585.555 10 0 59888 55800.00000 0 -13468006.978 18464995.232 11374223.909 10 0 59888 56700.00000 0 -14291319.098 19374942.794 8483447.905 10 0 59888 57600.00000 0 -14792627.262 20079243.121 5428226.074 10 0 59888 58500.00000 0 -14994682.036 20526290.625 2267747.432 10 0 59888 59400.00000 0 -14931031.483 20672051.181 -936717.552 10 0 59888 60300.00000 0 -14644396.193 20482048.821 -4122999.731 10 0 59888 61200.00000 0 -14184668.798 19932971.358 -7229234.989 10 0 59888 62100.00000 0 -13606622.074 19013825.890 -10195065.660 10 0 59888 63000.00000 0 -12967422.245 17726593.858 -12962816.107 10 0 59888 63900.00000 0 -12324052.586 16086356.235 -15478619.080 10 0 59888 64800.00000 0 -11730756.511 14120881.450 -17693470.520 10 0 59888 65700.00000 0 -11236608.695 11869691.357 -19564191.674 10 0 59888 66600.00000 0 -10883317.654 9382642.583 -21054279.080 10 0 59888 67500.00000 0 -10703353.509 6718080.995 -22134625.303 10 0 59888 68400.00000 0 -10718481.049 3940645.152 -22784095.746 10 0 59888 69300.00000 0 -10938761.141 1118809.573 -22989949.677 10 0 59888 70200.00000 0 -11362063.672 -1677730.289 -22748096.723 10 0 59888 71100.00000 0 -11974113.579 -4380722.662 -22063183.250 10 0 59888 72000.00000 0 -12749068.773 -6925962.589 -20948506.485 10 0 59888 72900.00000 0 -13650606.127 -9255725.036 -19425757.616 10 0 59888 73800.00000 0 -14633469.942 -11320926.499 -17524598.579 10 0 59888 74700.00000 0 -15645417.412 -13082924.851 -15282080.682 10 0 59888 75600.00000 0 -16629478.563 -14514882.618 -12741916.508 10 0 59888 76500.00000 0 -17526434.490 -15602637.269 -9953619.612 10 0 59888 77400.00000 0 -18277408.312 -16345043.077 -6971529.487 10 0 59888 78300.00000 0 -18826458.317 -16753771.675 -3853741.645 10 0 59888 79200.00000 0 -19123062.749 -16852581.518 -660964.730 10 0 59888 80100.00000 0 -19124390.366 -16676089.044 2544671.809 10 0 59888 81000.00000 0 -18797260.259 -16268095.539 5700835.160 10 0 59888 81900.00000 0 -18119707.865 -15679542.419 8746206.967 10 0 59888 82800.00000 0 -17082091.147 -14966183.093 11621677.020 10 0 59888 83700.00000 0 -15687690.608 -14186071.228 14271489.222 10 0 59888 84600.00000 0 -13952778.327 -13396972.377 16644317.679 10 0 59888 85500.00000 0 -11906153.666 -12653808.560 18694252.403 10 0 59889 0.00000 0 -9588165.702 -12006243.412 20381676.365 10 0 59889 900.00000 0 -7049262.119 -11496508.531 21674019.004 10 0 59889 1800.00000 0 -4348128.192 -11157562.288 22546370.816 10 0 59889 2700.00000 0 -1549488.580 -11011655.980 22981951.741 10 0 59889 3600.00000 0 1278334.614 -11069367.162 22972423.342 10 0 59889 4500.00000 0 4066008.719 -11329139.152 22518040.907 10 0 59889 5400.00000 0 6745816.512 -11777345.288 21627643.189 10 0 59889 6300.00000 0 9254214.507 -12388874.797 20318480.382 10 0 59889 7200.00000 0 11534219.294 -13128215.800 18615883.546 10 0 59889 8100.00000 0 13537524.899 -13950990.492 16552781.412 10 0 59889 9000.00000 0 15226264.903 -14805878.942 14169072.946 10 0 59889 9900.00000 0 16574347.379 -15636851.801 11510866.764 10 0 59889 10800.00000 0 17568308.100 -16385619.251 8629600.831 10 0 59889 11700.00000 0 18207646.978 -16994194.146 5581058.191 10 0 59889 12600.00000 0 18504633.927 -17407462.235 2424296.754 10 0 59889 13500.00000 0 18483592.190 -17575651.424 -779487.093 10 0 59889 14400.00000 0 18179689.054 -17456595.929 -3968139.647 10 0 59889 15300.00000 0 17637284.404 -17017699.163 -7079753.168 10 0 59889 16200.00000 0 16907906.308 -16237511.489 -10053867.971 10 0 59889 17100.00000 0 16047938.648 -15106854.736 -12832649.811 10 0 59889 18000.00000 0 15116118.188 -13629444.133 -15362019.209 10 0 59889 18900.00000 0 14170946.748 -11821979.424 -17592710.260 10 0 59889 19800.00000 0 13268127.976 -9713699.056 -19481237.730 10 0 59889 20700.00000 0 12458137.368 -7345414.091 -20990752.930 10 0 59889 21600.00000 0 11784028.671 -4768060.328 -22091771.111 10 0 59889 22500.00000 0 11279569.970 -2040827.542 -22762755.597 10 0 59889 23400.00000 0 10967788.863 771057.261 -22990546.647 10 0 59889 24300.00000 0 10859988.846 3598800.960 -22770626.159 10 0 59889 25200.00000 0 10955279.084 6372667.384 -22107212.460 10 0 59889 26100.00000 0 11240637.895 9024643.102 -21013182.893 10 0 59889 27000.00000 0 11691507.624 11491034.860 -19509825.227 10 0 59889 27900.00000 0 12272895.786 13714890.293 -17626422.469 10 0 59889 28800.00000 0 12940935.764 15648140.667 -15399679.016 10 0 59889 29700.00000 0 13644840.562 17253376.278 -12872999.463 10 0 59889 30600.00000 0 14329166.194 18505180.534 -10095634.400 10 0 59889 31500.00000 0 14936287.978 19390967.474 -7121710.586 10 0 59889 32400.00000 0 15408983.804 19911288.697 -4009165.198 10 0 59889 33300.00000 0 15693013.910 20079598.284 -818606.017 10 0 59889 34200.00000 0 15739586.961 19921487.367 2387879.022 10 0 59889 35100.00000 0 15507607.253 19473422.651 5547938.579 10 0 59889 36000.00000 0 14965607.482 18781044.075 8600176.262 10 0 59889 36900.00000 0 14093285.159 17897095.399 11485346.044 10 0 59889 37800.00000 0 12882577.923 16879076.573 14147501.094 10 0 59889 38700.00000 0 11338232.653 15786718.111 16535073.808 10 0 59889 39600.00000 0 9477844.836 14679384.484 18601866.395 10 0 59889 40500.00000 0 7331366.856 13613515.933 20307933.813 10 0 59889 41400.00000 0 4940105.916 12640215.739 21620343.152 10 0 59889 42300.00000 0 2355253.374 11803083.312 22513796.172 10 0 59889 43200.00000 0 -363993.707 11136382.684 22971104.524 10 0 59889 44100.00000 0 -3152641.568 10663621.663 22983509.886 10 0 59889 45000.00000 0 -5942348.752 10396599.682 22550844.022 10 0 59889 45900.00000 0 -8664015.111 10334962.910 21681526.522 10 0 59889 46800.00000 0 -11250405.308 10466284.245 20392400.684 10 0 59889 47700.00000 0 -13638699.869 10766664.328 18708410.638 10 0 59889 48600.00000 0 -15772869.830 11201828.254 16662125.476 10 0 59889 49500.00000 0 -17605778.170 11728672.313 14293118.701 10 0 59889 50400.00000 0 -19100921.939 12297196.500 11647213.899 10 0 59889 51300.00000 0 -20233743.602 12852742.358 8775609.955 10 0 59889 52200.00000 0 -20992457.670 13338442.964 5733901.487 10 0 59889 53100.00000 0 -21378358.102 13697782.519 2581012.371 10 0 59889 54000.00000 0 -21405593.595 13877158.023 -621937.945 10 0 59889 54900.00000 0 -21100419.928 13828335.086 -3812813.988 10 0 59889 55800.00000 0 -20499960.212 13510693.767 -6929667.047 10 0 59889 56700.00000 0 -19650524.701 12893168.727 -9911937.930 10 0 59889 57600.00000 0 -18605560.366 11955800.431 -12701636.146 10 0 59889 58500.00000 0 -17423316.242 10690830.158 -15244472.132 10 0 59889 59400.00000 0 -16164322.770 9103290.644 -17490920.004 10 0 59889 60300.00000 0 -14888791.319 7211065.177 -19397189.605 10 0 59889 61200.00000 0 -13654043.727 5044410.436 -20926088.218 10 0 59889 62100.00000 0 -12512080.468 2644960.881 -22047754.589 10 0 59889 63000.00000 0 -11507390.389 64254.371 -22740250.372 10 0 59889 63900.00000 0 -10675094.790 -2638160.855 -22989996.823 10 0 59889 64800.00000 0 -10039504.509 -5396960.079 -22792047.703 10 0 59889 65700.00000 0 -9613151.233 -8143524.501 -22150192.506 10 0 59889 66600.00000 0 -9396334.143 -10808568.981 -21076887.497 10 0 59889 67500.00000 0 -9377201.068 -13324805.678 -19593015.484 10 0 59889 68400.00000 0 -9532360.549 -15629532.411 -17727478.671 10 0 59889 69300.00000 0 -9827998.569 -17667037.399 -15516632.406 10 0 59889 70200.00000 0 -10221452.011 -19390719.785 -13003570.951 10 0 59889 71100.00000 0 -10663171.359 -20764837.264 -10237279.470 10 0 59889 72000.00000 0 -11098988.430 -21765807.815 -7271669.463 10 0 59889 72900.00000 0 -11472591.796 -22383011.658 -4164517.250 10 0 59889 73800.00000 0 -11728103.735 -22619060.801 -976327.246 10 0 59889 74700.00000 0 -11812648.314 -22489526.246 2230856.573 10 0 59889 75600.00000 0 -11678800.764 -22022136.116 5394666.743 10 0 59889 76500.00000 0 -11286813.653 -21255480.337 8453631.196 10 0 59889 77400.00000 0 -10606525.247 -20237278.362 11348370.387 10 0 59889 78300.00000 0 -9618869.230 -19022284.627 14022748.987 10 0 59889 79200.00000 0 -8316922.206 -17669921.293 16424959.775 10 0 59889 80100.00000 0 -6706445.085 -16241738.767 18508519.091 10 0 59889 81000.00000 0 -4805895.944 -14798811.053 20233155.435 10 0 59889 81900.00000 0 -2645913.886 -13399174.990 21565575.264 10 0 59889 82800.00000 0 -268295.541 -12095419.950 22480092.527 10 0 59889 83700.00000 0 2275493.502 -10932527.667 22959111.338 10 0 59889 84600.00000 0 4926211.123 -9946050.969 22993453.893 10 0 59889 85500.00000 0 7619057.282 -9160705.926 22582528.492 99